TimeCDT,TemperatureF,Dew PointF,Humidity,Sea Level PressureIn,VisibilityMPH,Wind Direction,Wind SpeedMPH,Gust SpeedMPH,PrecipitationIn,Events,Conditions,WindDirDegrees,DateUTC
12:55 AM,24.8,15.8,69,30.23,10.0,NW,20.7,28.8,N/A,,Mostly Cloudy,310,2013-03-13 05:55:00
1:15 AM,24.8,15.8,69,30.24,10.0,NW,19.6,28.8,N/A,,Overcast,320,2013-03-13 06:15:00
1:35 AM,24.8,15.8,69,30.25,10.0,NW,16.1,23.0,N/A,,Overcast,310,2013-03-13 06:35:00
1:55 AM,23.0,14.0,68,30.26,10.0,NW,16.1,23.0,N/A,,Scattered Clouds,310,2013-03-13 06:55:00
2:15 AM,21.2,14.0,74,30.26,10.0,NW,16.1,21.9,N/A,,Clear,310,2013-03-13 07:15:00
2:35 AM,21.2,14.0,74,30.26,10.0,NW,12.7,-,N/A,,Clear,320,2013-03-13 07:35:00
2:55 AM,21.2,14.0,74,30.27,10.0,NW,15.0,-,N/A,,Clear,310,2013-03-13 07:55:00
3:15 AM,21.2,14.0,74,30.27,10.0,NW,16.1,21.9,N/A,,Clear,310,2013-03-13 08:15:00
3:55 AM,21.2,14.0,74,30.28,10.0,NW,16.1,20.7,N/A,,Clear,310,2013-03-13 08:55:00
4:15 AM,21.2,14.0,74,30.29,10.0,NW,13.8,-,N/A,,Clear,310,2013-03-13 09:15:00
4:35 AM,19.4,14.0,80,30.29,10.0,NW,15.0,-,N/A,,Clear,310,2013-03-13 09:35:00
5:15 AM,19.4,12.2,74,30.30,10.0,NW,12.7,-,N/A,,Clear,310,2013-03-13 10:15:00
5:35 AM,19.4,12.2,74,30.31,10.0,NW,11.5,-,N/A,,Clear,320,2013-03-13 10:35:00
5:55 AM,19.4,12.2,74,30.32,10.0,NW,11.5,-,N/A,,Clear,310,2013-03-13 10:55:00
6:15 AM,19.4,12.2,74,30.33,10.0,NW,12.7,-,N/A,,Clear,310,2013-03-13 11:15:00
6:35 AM,19.4,12.2,74,30.33,10.0,NW,11.5,-,N/A,,Clear,320,2013-03-13 11:35:00
6:55 AM,19.4,12.2,74,30.34,10.0,NW,10.4,16.1,N/A,,Clear,320,2013-03-13 11:55:00
7:15 AM,19.4,12.2,74,30.34,10.0,NW,15.0,-,N/A,,Clear,310,2013-03-13 12:15:00
7:35 AM,17.6,12.2,79,30.34,10.0,NW,11.5,-,N/A,,Clear,310,2013-03-13 12:35:00
7:55 AM,19.4,12.2,74,30.35,10.0,NW,11.5,-,N/A,,Clear,320,2013-03-13 12:55:00
8:15 AM,19.4,12.2,74,30.36,10.0,NW,13.8,-,N/A,,Clear,310,2013-03-13 13:15:00
8:35 AM,19.4,12.2,74,30.36,10.0,NW,11.5,19.6,N/A,,Clear,320,2013-03-13 13:35:00
8:55 AM,21.2,14.0,74,30.37,10.0,NW,10.4,-,N/A,,Clear,320,2013-03-13 13:55:00
9:15 AM,21.2,14.0,74,30.38,10.0,NNW,12.7,-,N/A,,Clear,330,2013-03-13 14:15:00
9:35 AM,23.0,14.0,68,30.39,10.0,NNW,10.4,-,N/A,,Clear,330,2013-03-13 14:35:00
9:55 AM,24.8,15.8,69,30.40,10.0,NNW,9.2,-,N/A,,Clear,330,2013-03-13 14:55:00
10:15 AM,24.8,15.8,69,30.41,10.0,NW,6.9,-,N/A,,Clear,320,2013-03-13 15:15:00
10:35 AM,26.6,15.8,64,30.41,10.0,NNW,9.2,-,N/A,,Clear,330,2013-03-13 15:35:00
10:55 AM,26.6,15.8,64,30.42,10.0,NW,8.1,-,N/A,,Clear,320,2013-03-13 15:55:00
11:15 AM,26.6,15.8,64,30.42,10.0,WNW,11.5,17.3,N/A,,Clear,300,2013-03-13 16:15:00
11:35 AM,28.4,17.6,64,30.43,10.0,WNW,10.4,-,N/A,,Clear,300,2013-03-13 16:35:00
11:55 AM,28.4,15.8,59,30.43,10.0,WNW,10.4,-,N/A,,Clear,300,2013-03-13 16:55:00
12:15 PM,30.2,15.8,55,30.43,10.0,NW,9.2,-,N/A,,Clear,310,2013-03-13 17:15:00
12:35 PM,30.2,15.8,55,30.43,10.0,WNW,9.2,-,N/A,,Clear,290,2013-03-13 17:35:00
12:55 PM,30.2,14.0,51,30.43,10.0,NNW,9.2,-,N/A,,Clear,330,2013-03-13 17:55:00
1:15 PM,30.2,15.8,55,30.43,10.0,West,6.9,-,N/A,,Clear,280,2013-03-13 18:15:00
1:35 PM,32.0,14.0,48,30.43,10.0,NW,5.8,17.3,N/A,,Clear,320,2013-03-13 18:35:00
1:55 PM,32.0,15.8,51,30.43,10.0,WNW,6.9,-,N/A,,Clear,290,2013-03-13 18:55:00
2:15 PM,33.8,15.8,48,30.42,10.0,West,6.9,-,N/A,,Clear,270,2013-03-13 19:15:00
2:35 PM,33.8,17.6,52,30.41,10.0,WNW,6.9,-,N/A,,Clear,300,2013-03-13 19:35:00
2:55 PM,33.8,15.8,48,30.40,10.0,WSW,3.5,-,N/A,,Clear,250,2013-03-13 19:55:00
3:15 PM,35.6,17.6,48,30.40,10.0,West,9.2,-,N/A,,Clear,270,2013-03-13 20:15:00
3:35 PM,35.6,15.8,44,30.39,10.0,WNW,8.1,-,N/A,,Clear,300,2013-03-13 20:35:00
3:55 PM,35.6,17.6,48,30.39,10.0,West,8.1,-,N/A,,Clear,270,2013-03-13 20:55:00
4:15 PM,35.6,17.6,48,30.38,10.0,West,4.6,-,N/A,,Clear,270,2013-03-13 21:15:00
4:35 PM,35.6,17.6,48,30.39,10.0,West,4.6,-,N/A,,Clear,260,2013-03-13 21:35:00
4:55 PM,35.6,15.8,44,30.38,10.0,West,4.6,-,N/A,,Clear,260,2013-03-13 21:55:00
5:15 PM,35.6,15.8,44,30.38,10.0,SW,5.8,-,N/A,,Clear,220,2013-03-13 22:15:00
5:35 PM,35.6,15.8,44,30.37,10.0,West,3.5,-,N/A,,Clear,280,2013-03-13 22:35:00
5:55 PM,35.6,15.8,44,30.37,10.0,West,4.6,-,N/A,,Clear,260,2013-03-13 22:55:00
6:15 PM,35.6,15.8,44,30.37,10.0,West,5.8,-,N/A,,Clear,270,2013-03-13 23:15:00
6:35 PM,33.8,17.6,52,30.37,10.0,NW,4.6,-,N/A,,Clear,310,2013-03-13 23:35:00
6:55 PM,33.8,17.6,52,30.36,10.0,Calm,Calm,-,N/A,,Clear,0,2013-03-13 23:55:00
7:15 PM,32.0,17.6,55,30.36,10.0,Calm,Calm,-,N/A,,Clear,0,2013-03-14 00:15:00
7:35 PM,32.0,15.8,51,30.35,10.0,Calm,Calm,-,N/A,,Clear,0,2013-03-14 00:35:00
7:55 PM,30.2,17.6,60,30.35,10.0,Calm,Calm,-,N/A,,Clear,0,2013-03-14 00:55:00
8:15 PM,30.2,17.6,60,30.35,10.0,Calm,Calm,-,N/A,,Clear,0,2013-03-14 01:15:00
8:35 PM,30.2,17.6,60,30.35,10.0,Calm,Calm,-,N/A,,Clear,0,2013-03-14 01:35:00
8:55 PM,28.4,17.6,64,30.35,10.0,Calm,Calm,-,N/A,,Clear,0,2013-03-14 01:55:00
9:15 PM,28.4,17.6,64,30.34,10.0,Calm,Calm,-,N/A,,Clear,0,2013-03-14 02:15:00
9:35 PM,28.4,17.6,64,30.35,10.0,Calm,Calm,-,N/A,,Clear,0,2013-03-14 02:35:00
9:55 PM,28.4,17.6,64,30.34,10.0,East,3.5,-,N/A,,Clear,100,2013-03-14 02:55:00
10:15 PM,28.4,17.6,64,30.34,10.0,Calm,Calm,-,N/A,,Clear,0,2013-03-14 03:15:00
10:35 PM,28.4,17.6,64,30.34,10.0,ESE,3.5,-,N/A,,Clear,120,2013-03-14 03:35:00
10:55 PM,28.4,17.6,64,30.33,10.0,SE,5.8,-,N/A,,Clear,130,2013-03-14 03:55:00
11:15 PM,28.4,17.6,64,30.33,10.0,SE,3.5,-,N/A,,Clear,140,2013-03-14 04:15:00
11:35 PM,28.4,17.6,64,30.32,10.0,SE,5.8,-,N/A,,Clear,130,2013-03-14 04:35:00
11:55 PM,28.4,17.6,64,30.31,10.0,SE,4.6,-,N/A,,Clear,140,2013-03-14 04:55:00